QR416 OTHH-OLBA

Flight info

Callsign QR416
Flight time N/A
Altitude 35000
Route TULUB2E TULUB B457 NARMI DCT KFA H741 JBL DCT FIRAS R655 KTN/N0466F260 R655 LEBOR LEBOR1X
Aircraft B77W/H-VGDW/C

Departure

Time 2026-05-05 18:28
Airport Hamad International Airport (OTHH)

Arrival

Time N/A
Airport Beirut Rafic Hariri International Airport (OLBA)
Time Latitude Longitude Altitude Speed Heading
2026-05-05 18:08 25.26731 51.61224 31 ft 0 kts 264°
2026-05-05 18:12 25.26731 51.61225 31 ft 2 kts 264°
2026-05-05 18:12 25.26733 51.61245 30 ft 3 kts 264°
2026-05-05 18:12 25.26735 51.61266 29 ft 3 kts 264°
2026-05-05 18:13 25.26733 51.61289 28 ft 3 kts 298°
2026-05-05 18:13 25.26720 51.61307 27 ft 3 kts 334°
2026-05-05 18:13 25.26716 51.61309 29 ft 0 kts 343°
2026-05-05 18:17 25.26716 51.61310 29 ft 0 kts 346°
2026-05-05 18:17 25.26717 51.61310 29 ft 0 kts 352°
2026-05-05 18:17 25.26720 51.61311 29 ft 0 kts
2026-05-05 18:18 25.26722 51.61313 21 ft 0 kts 21°
2026-05-05 18:18 25.26728 51.61318 19 ft 3 kts 30°
2026-05-05 18:18 25.26755 51.61335 37 ft 6 kts 29°
2026-05-05 18:18 25.26803 51.61360 31 ft 9 kts 24°
2026-05-05 18:19 25.26874 51.61395 31 ft 13 kts 24°
2026-05-05 18:19 25.26966 51.61441 31 ft 16 kts 30°
2026-05-05 18:19 25.27030 51.61549 31 ft 18 kts 66°
2026-05-05 18:19 25.27059 51.61688 31 ft 18 kts 109°
2026-05-05 18:20 25.26981 51.61738 31 ft 12 kts 160°
2026-05-05 18:20 25.26897 51.61773 31 ft 14 kts 158°
2026-05-05 18:20 25.26797 51.61817 31 ft 17 kts 158°
2026-05-05 18:20 25.26679 51.61870 31 ft 19 kts 158°
2026-05-05 18:21 25.26544 51.61929 31 ft 22 kts 159°
2026-05-05 18:21 25.26393 51.61994 31 ft 24 kts 159°
2026-05-05 18:21 25.26227 51.62066 32 ft 27 kts 158°
2026-05-05 18:21 25.26049 51.62148 32 ft 28 kts 156°
2026-05-05 18:22 25.25871 51.62229 31 ft 28 kts 158°
2026-05-05 18:22 25.25686 51.62305 31 ft 29 kts 159°
2026-05-05 18:22 25.25539 51.62370 31 ft 23 kts 157°
2026-05-05 18:22 25.25485 51.62475 31 ft 14 kts 71°
2026-05-05 18:23 25.25505 51.62529 31 ft 0 kts 67°
2026-05-05 18:24 25.25506 51.62531 31 ft 1 kts 67°
2026-05-05 18:24 25.25516 51.62553 31 ft 5 kts 63°
2026-05-05 18:24 25.25545 51.62596 31 ft 9 kts 47°
2026-05-05 18:24 25.25603 51.62633 32 ft 11 kts 12°
2026-05-05 18:25 25.25670 51.62621 32 ft 0 kts 339°
2026-05-05 18:27 25.25681 51.62616 31 ft 15 kts 339°
2026-05-05 18:27 25.26025 51.62467 31 ft 90 kts 338°
2026-05-05 18:27 25.26840 51.62113 29 ft 160 kts 338°
2026-05-05 18:28 25.29593 51.60872 573 ft 255 kts 338°
2026-05-05 18:28 25.31266 51.60005 1299 ft 277 kts 334°
2026-05-05 18:28 25.33016 51.59019 20419 ft 315 kts 330°
2026-05-05 18:29 25.35190 51.57822 18612 ft 389 kts 332°
2026-05-05 18:29 25.37939 51.56278 14804 ft 509 kts 333°
2026-05-05 18:29 25.40178 51.54979 13303 ft 0 kts 332°